Weather observations for the past three days for
Middleton Muni - Morey Field
Imperial (Metric)
Date Time (cdt) Wind (mph) Vis. (mi.) Weather Sky Cond. Temperature (ºF) Relative Humidity Wind Chill (°F) Heat Index (°F) Pressure Precipitation (in)
Air Dwpt 6 hour altimeter (in) sea level (mb) 1 hr 3 hr 6 hr
Max. Min.
15 04:15 Calm 10.00 Mostly Cloudy SCT019 BKN024 BKN034 70.7 68.9 94% 29.87 0.0
15 03:55 Calm 10.00 Overcast BKN019 OVC025 70.7 69.4 96% 29.86 0.0
15 03:35 W 3 10.00 Overcast SCT019 BKN025 OVC035 70.7 69.1 95% 29.86 0.0
15 03:15 W 5 10.00 Overcast SCT022 BKN027 OVC042 70.7 69.1 95% 29.86 0.0
15 02:55 W 5 10.00 Overcast BKN022 OVC027 70.7 68.9 94% 29.86 0.0
15 02:35 W 3 10.00 Mostly Cloudy BKN022 70.2 68.2 93% 29.86 0.0
15 02:15 Calm 10.00 Fair CLR 69.3 68.4 97% 29.85 0.0
15 01:55 W 3 10.00 Fair CLR 70.2 68.4 94% 29.85 0.0
15 01:35 SW 3 10.00 Mostly Cloudy BKN028 70.7 68.9 94% 29.86 0.0
15 01:15 Calm 10.00 Overcast BKN023 OVC028 70.7 69.6 96% 29.86 0.0
15 00:55 Calm 10.00 Mostly Cloudy BKN021 BKN028 69.8 69.4 81.5 68.7 99% 29.86 0.0 0.83
15 00:35 Calm 10.00 Partly Cloudy SCT021 SCT026 68.9 68.4 98% 29.87 0.0
15 00:15 Calm 10.00 Partly Cloudy SCT024 68.9 68.2 98% 29.88 0.0
14 23:55 Calm 10.00 Mostly Cloudy SCT022 BKN028 69.8 69.3 98% 29.88 0.0
14 23:35 Calm 10.00 Partly Cloudy SCT024 69.8 69.1 98% 29.86 0.0
14 23:15 Calm 10.00 Partly Cloudy SCT028 70.2 69.1 96% 29.85 0.0
14 22:55 Calm 10.00 Partly Cloudy SCT028 69.8 69.1 98% 29.87 0.0
14 22:35 Calm 10.00 Fair CLR 70.7 69.3 95% 29.85 0.0
14 22:15 Calm 10.00 Fair CLR 71.1 69.3 94% 29.86 0.0
14 21:55 SW 7 10.00 Fair CLR 71.8 69.3 92% 29.88 0.0 0.83
14 21:35 S 8 10.00 Fair CLR 72 68.5 89% 29.88 0.0
14 21:15 S 10 10.00 Partly Cloudy SCT036 SCT050 72 69.3 91% 29.88 0.0
14 20:50 S 7 10.00 Fair CLR 70.5 69.4 96% 29.86 0.0
14 20:35 W 6 10.00 Fair CLR 70.7 68.9 94% 29.84 0.0
14 20:15 E 7 10.00 Fair CLR 70.9 67.1 88% 29.84 0.0
14 19:55 S 8 10.00 Partly Cloudy SCT018 SCT033 SCT038 72.3 66 81% 29.87 0.0 0.83
14 19:35 Calm 0.50 Overcast BKN018 OVC027 68.9 65.7 89% 29.85 0.0 0.79
14 19:15 NW 31 G 39 2.00 Overcast and Windy SCT013 BKN022 OVC029 76.1 73.2 91% 76 29.9 0.0 0.33
14 18:55 SW 7 4.00 Overcast SCT023 BKN029 OVC034 81.9 75 87.3 81.9 80% 88 29.87 0.0 0.08 0.08
14 18:35 Calm 10.00 Overcast BKN029 OVC036 82.4 75.4 79% 90 29.87 0.0
14 18:15 W 3 10.00 Overcast SCT027 BKN036 OVC046 83.3 75.4 77% 91 29.88 0.0
14 17:55 SW 3 10.00 Overcast SCT038 OVC046 84.2 74.5 73% 92 29.88 0.0
14 17:35 SW 5 10.00 Overcast SCT032 BKN038 OVC044 84.6 74.3 71% 92 29.88 0.0
14 17:15 SW 5 10.00 Overcast SCT032 OVC044 85.6 74.3 69% 94 29.88 0.0
14 16:55 SW 6 10.00 Mostly Cloudy SCT027 SCT033 BKN046 85.6 74.5 69% 94 29.88 0.0
14 16:35 W 6 10.00 Mostly Cloudy SCT029 BKN036 BKN042 85.3 74.7 71% 94 29.88 0.0
14 16:15 W 7 10.00 Partly Cloudy SCT029 SCT037 86.7 74.5 67% 95 29.88 0.0
14 15:55 W 7 10.00 Partly Cloudy SCT027 SCT035 86.9 73.8 65% 95 29.88 0.0
14 15:35 W 8 10.00 Overcast BKN029 OVC035 85.3 73.4 68% 92 29.89 0.0
14 15:15 SW 8 10.00 Mostly Cloudy BKN031 86 73 65% 93 29.89 0.0
14 14:55 W 7 10.00 Partly Cloudy SCT028 86.2 72.9 65% 93 29.89 0.0
14 14:35 SW 9 10.00 Partly Cloudy SCT029 85.5 73.4 67% 93 29.89 0.0
14 14:15 W 9 10.00 Mostly Cloudy BKN029 83.5 72 68% 89 29.89 0.0
14 13:55 SW 9 10.00 Partly Cloudy SCT029 85.6 72.9 66% 92 29.9 0.0
14 13:35 W 8 10.00 Fair CLR 85.3 72.5 66% 92 29.9 0.0
14 13:15 SW 8 10.00 Fair CLR 84.9 72 65% 91 29.91 0.0
14 12:55 SW 9 10.00 Fair CLR 84.2 71.1 84.4 67.1 65% 89 29.92 0.0
14 12:35 SW 9 10.00 Fair CLR 83.8 70.9 65% 89 29.92 0.0
14 12:15 SW 10 10.00 Fair CLR 83.5 70.5 65% 88 29.93 0.0
14 11:55 SW 13 G 17 10.00 Fair CLR 82.4 69.4 65% 86 29.95 0.0
14 11:35 SW 9 10.00 Fair CLR 81.9 68.5 64% 85 29.94 0.0
14 11:15 SW 8 10.00 Fair CLR 80.2 68.9 68% 83 29.94 0.0
14 10:55 SW 13 G 17 10.00 Fair CLR 78.1 69.1 74% 80 29.94 0.0
14 10:35 SW 15 G 21 10.00 Fair CLR 77 68.5 75% 79 29.94 0.0
14 10:15 S 12 G 20 10.00 Fair CLR 75.6 68 77% 77 29.94 0.0
14 09:55 S 14 G 18 10.00 Fair CLR 74.5 67.5 79% 29.93 0.0
14 09:35 S 12 10.00 Fair CLR 74.3 68.2 81% 29.94 0.0
14 09:15 S 10 10.00 Fair CLR 72.5 67.8 85% 29.94 0.0
14 08:55 S 8 10.00 Fair CLR 70.7 67.6 90% 29.93 0.0
14 08:35 S 8 10.00 Fair CLR 70 68 93% 29.93 0.0
14 08:15 S 7 10.00 Fair CLR 69.3 67.6 95% 29.93 0.0
14 07:55 S 8 10.00 Fair CLR 68.9 68 97% 29.92 0.0
14 07:35 E 6 10.00 Fair CLR 68.2 67.6 98% 29.91 0.0
14 07:15 SE 8 10.00 Partly Cloudy SCT120 68 67.6 99% 29.92 0.0
14 06:55 SE 8 10.00 Mostly Cloudy SCT085 BKN110 67.1 66.7 69.8 67.1 99% 29.94 0.0 0.05 0.57
14 06:35 SE 3 7.00 Overcast OVC110 67.5 66.7 98% 30.02 0.0 0.04
14 06:15 N 5 10.00 Mostly Cloudy SCT090 BKN120 67.3 66.6 98% 30.02 0.0 0.01
14 05:55 NW 6 10.00 Overcast SCT009 BKN090 OVC110 67.3 66.7 98% 30.04 0.0 0.52
14 05:35 NW 13 G 21 0.75 Overcast BKN007 OVC011 67.3 66.6 98% 30.07 0.0 0.48
14 05:15 NW 22 G 28 10.00 Mostly Cloudy and Breezy SCT039 BKN050 69.8 69.3 98% 30.04 0.0
14 04:55 S 7 10.00 Fair CLR 68.9 68.5 99% 29.96 0.0
14 04:35 SE 3 10.00 Fair CLR 68.4 68.2 99% 29.96 0.0
14 04:15 S 5 10.00 Partly Cloudy SCT065 68.2 68 99% 29.96 0.0
14 03:55 SE 5 10.00 Fair CLR 68.2 67.8 99% 29.95 0.0
14 03:35 S 5 10.00 Fair CLR 68.4 68 99% 29.95 0.0
14 03:15 S 5 10.00 Partly Cloudy SCT006 68.5 68.2 99% 29.97 0.0
14 02:55 S 5 10.00 Mostly Cloudy BKN006 68.9 68.4 98% 29.97 0.0
14 02:35 S 7 10.00 Mostly Cloudy BKN006 BKN011 68.9 68.4 98% 29.97 0.0
14 02:15 S 8 10.00 Overcast OVC006 69.4 68.9 98% 29.99 0.0
14 01:55 S 7 10.00 Overcast OVC006 69.8 69.1 98% 30 0.0
14 01:35 Calm 10.00 Overcast OVC006 69.6 69.1 98% 30 0.0
14 01:15 S 3 10.00 Overcast BKN006 BKN020 OVC090 69.1 68.9 99% 30 0.0
14 00:55 SE 13 G 26 10.00 Mostly Cloudy SCT008 SCT040 BKN120 68.9 68.4 84.4 67.6 98% 29.97 0.0 0.08 1.36
14 00:35 SE 15 7.00 Overcast SCT011 BKN040 OVC110 68.9 68.4 98% 30.01 0.0 0.06
14 00:15 SE 7 10.00 Overcast BKN009 OVC013 69.1 68.5 98% 30.05 0.0 0.02
13 23:55 E 6 10.00 Overcast BKN007 BKN012 OVC029 69.6 68.9 98% 30.07 0.0
13 23:35 E 6 10.00 Overcast BKN012 OVC031 69.4 68.9 98% 30.03 0.0
13 23:15 E 6 10.00 Mostly Cloudy SCT014 BKN031 BKN060 68.9 68.2 98% 30.03 0.0
13 22:55 SE 5 10.00 Partly Cloudy SCT060 69.3 68.4 97% 30.01 0.0
13 22:35 SE 5 10.00 Partly Cloudy SCT060 SCT070 SCT080 69.3 68.9 99% 30.02 0.0
13 22:15 E 9 10.00 Mostly Cloudy SCT015 SCT050 BKN090 68.9 68.4 98% 30 0.0
13 21:55 SE 10 G 17 10.00 Mostly Cloudy SCT015 SCT060 BKN095 69.3 68.5 98% 30.02 0.0 0.14 1.28
13 21:35 E 8 10.00 Mostly Cloudy SCT050 SCT060 BKN110 68.9 68.4 98% 30.02 0.0 0.11
13 21:15 SE 8 5.00 Overcast SCT048 BKN060 OVC100 68.9 68.2 98% 30.03 0.0 0.08
13 20:55 S 14 3.00 Overcast SCT030 SCT039 OVC050 68.5 68.2 99% 30.07 0.0 0.83
13 20:35 Calm 2.50 Overcast SCT010 BKN032 OVC050 67.8 67.3 98% 30.07 0.0 0.64
13 20:15 N 12 1.50 Overcast BKN008 BKN012 OVC021 68 67.1 97% 30.05 0.0 0.39
13 19:55 N 12 G 31 1.25 Overcast BKN009 BKN023 OVC032 70.2 66 87% 30.08 0.0 0.27
13 19:35 S 9 10.00 Overcast SCT027 OVC031 83.8 74.1 73% 91 30 0.0
13 19:15 S 10 10.00 Overcast BKN031 OVC037 84.2 73.4 70% 91 29.99 0.0
13 18:55 S 9 10.00 Mostly Cloudy BKN031 BKN038 84.4 73.4 88.9 84 70% 91 30 0.0
13 18:35 S 9 10.00 Partly Cloudy SCT038 SCT045 84.6 72.9 68% 91 29.99 0.0
13 18:15 S 9 G 16 10.00 Mostly Cloudy SCT036 BKN045 84.7 72.5 67% 91 30 0.0
13 17:55 S 14 G 20 10.00 Overcast BKN036 OVC044 85.8 72.5 65% 92 30 0.0
13 17:35 S 12 10.00 Overcast OVC034 86 72.1 63% 92 30.02 0.0
13 17:15 S 9 G 16 10.00 Mostly Cloudy BKN036 87.6 72.5 61% 95 30.01 0.0
13 16:50 S 12 G 20 10.00 Mostly Cloudy BKN036 88.3 72.5 60% 96 30.01 0.0
13 16:35 S 10 G 16 10.00 Mostly Cloudy BKN036 88.3 72.3 59% 95 30.02 0.0
13 16:15 S 10 G 17 10.00 Partly Cloudy SCT036 87.8 71.4 58% 94 30.03 0.0
13 15:55 S 15 10.00 Fair CLR 88.9 71.4 56% 95 30.03 0.0
13 15:35 S 12 G 21 10.00 Partly Cloudy SCT038 SCT050 88.7 72 58% 96 30.05 0.0
13 15:15 S 10 G 16 10.00 Mostly Cloudy BKN038 BKN047 BKN065 88.7 71.8 57% 95 30.06 0.0
13 14:55 S 12 G 18 10.00 Mostly Cloudy SCT035 BKN041 BKN047 87.4 71.2 59% 93 30.07 0.0
13 14:35 SE 13 G 17 10.00 Partly Cloudy SCT034 SCT040 SCT047 88.3 72.9 60% 96 30.07 0.0
13 14:15 S 12 10.00 Mostly Cloudy BKN034 BKN042 BKN050 86.7 71.6 61% 93 30.08 0.0
13 13:55 S 9 10.00 Mostly Cloudy SCT032 SCT039 BKN050 86.4 72 62% 93 30.09 0.0
13 13:35 S 6 10.00 Mostly Cloudy SCT034 BKN039 BKN045 86.2 71.6 62% 92 30.1 0.0
13 13:15 SW 7 10.00 Overcast SCT030 BKN038 OVC070 85.1 71.4 64% 91 30.11 0.0
13 12:55 S 9 10.00 Overcast SCT026 SCT032 OVC055 84.2 71.4 84.7 66 66% 89 30.11 0.0
13 12:35 S 9 10.00 Overcast BKN024 BKN031 OVC070 83.1 72.5 70% 89 30.11 0.0
13 12:15 S 10 10.00 Overcast SCT024 SCT048 OVC060 83.8 72.7 69% 90 30.12 0.0
13 11:55 S 8 10.00 Overcast BKN050 OVC060 82.2 72 71% 87 30.12 0.0
13 11:35 SE 12 10.00 Overcast OVC050 82.2 71.8 71% 87 30.11 0.0
13 11:15 SE 9 10.00 Mostly Cloudy SCT049 BKN055 82 70.9 69% 86 30.11 0.0
13 10:55 SE 8 10.00 Partly Cloudy SCT049 SCT055 82.4 71.1 69% 87 30.11 0.0
13 10:35 S 10 10.00 Fair CLR 81.1 69.6 68% 85 30.11 0.0
13 10:15 SE 12 10.00 Fair CLR 80.6 69.6 69% 84 30.12 0.0
13 09:55 S 13 10.00 Partly Cloudy SCT033 SCT047 SCT070 80.1 70 71% 83 30.13 0.0
13 09:35 S 12 10.00 Fair CLR 79.5 70 73% 82 30.14 0.0
13 09:15 S 9 G 18 10.00 Partly Cloudy SCT032 SCT038 79 69.4 73% 82 30.14 0.0
13 08:55 S 10 10.00 Partly Cloudy SCT032 SCT038 SCT047 78.8 69.6 74% 81 30.16 0.0
13 08:35 S 8 10.00 Mostly Cloudy SCT032 BKN041 BKN046 76.6 69.3 78% 78 30.16 0.0
13 08:15 S 8 10.00 Overcast BKN043 OVC055 75.4 68.5 79% 76 30.16 0.0
13 07:55 SE 5 10.00 Overcast BKN041 OVC055 73.6 68.5 84% 30.15 0.0
13 07:35 Calm 7.00 Overcast OVC041 70.3 69.3 96% 30.15 0.0
13 07:15 Calm 7.00 Mostly Cloudy SCT043 BKN055 68.4 68.4 100% 30.16 0.0
13 06:55 Calm 5.00 Partly Cloudy SCT055 65.7 65.7 65.7 59.2 100% 30.14 0.0
13 06:35 Calm 4.00 Fair CLR 63.3 63.3 100% 30.14 0.0
13 06:15 Calm 4.00 Fair CLR 61.2 61.2 100% 30.14 0.0
13 05:55 Calm 5.00 Fair CLR 61.7 61.7 100% 30.15 0.0
13 05:35 Calm 5.00 Partly Cloudy SCT075 SCT090 60.3 60.3 100% 30.14 0.0
13 05:15 Calm 7.00 Mostly Cloudy SCT075 BKN090 60.4 60.4 100% 30.15 0.0
13 04:55 Calm 7.00 Fair CLR 59.9 59.9 100% 30.14 0.0
13 04:30 Calm 7.00 Fair CLR 61 61 100% 30.13 0.0
13 04:15 Calm 5.00 Fair CLR 59.9 59.9 100% 30.14 0.0
13 03:55 Calm 5.00 Fair CLR 59.5 59.5 100% 30.14 0.0
13 03:35 NW 3 7.00 Fair CLR 60.3 60.3 100% 30.14 0.0
13 03:15 Calm 7.00 Fair CLR 60.6 60.6 100% 30.13 0.0
13 02:55 Calm 7.00 Fair CLR 59.9 59.9 100% 30.13 0.0
13 02:35 Calm 4.00 Fair CLR 60.4 60.4 100% 30.13 0.0
13 02:15 Calm 7.00 Fair CLR 61 61 100% 30.13 0.0
13 01:55 Calm 10.00 Fair CLR 62.1 62.1 100% 30.13 0.0
13 01:35 Calm 7.00 Fair CLR 62.2 62.2 100% 30.14 0.0
13 01:15 Calm 10.00 Fair CLR 62.6 62.4 99% 30.14 0.0
13 00:55 Calm 10.00 Fair CLR 63.1 62.8 83.3 63.1 99% 30.14 0.0
13 00:35 Calm 10.00 Fair CLR 63.5 63.1 99% 30.14 0.0
13 00:15 Calm 10.00 Fair CLR 64 63.7 99% 30.14 0.0
12 23:55 Calm 10.00 Fair CLR 64 64 100% 30.14 0.0
12 23:35 Calm 10.00 Fair CLR 64.4 64 99% 30.14 0.0
12 23:15 Calm 10.00 Fair CLR 64.8 64.4 99% 30.14 0.0
12 22:55 Calm 10.00 Fair CLR 64.6 64.2 99% 30.13 0.0
12 22:35 Calm 10.00 Fair CLR 65.1 64.6 98% 30.13 0.0
12 22:10 Calm 10.00 Fair CLR 66.4 65.5 97% 30.13 0.0
12 21:55 Calm 10.00 Fair CLR 67.6 66.2 95% 30.13 0.0
12 21:35 Calm 10.00 Fair CLR 67.5 66 95% 30.13 0.0
12 21:15 Calm 10.00 Fair CLR 69.1 66.2 91% 30.13 0.0
12 20:55 Calm 10.00 Fair CLR 71.6 64.4 78% 30.13 0.0
12 20:35 Calm 10.00 Fair CLR 77.2 60.4 56% 79 30.12 0.0
12 20:15 S 3 10.00 Fair CLR 79.3 60.3 52% 80 30.13 0.0
12 19:55 S 6 10.00 Fair CLR 80.6 60.1 50% 81 30.13 0.0
12 19:35 S 6 10.00 Fair CLR 81.5 60.8 50% 82 30.12 0.0
12 19:15 S 6 10.00 Fair CLR 82 61.3 50% 83 30.12 0.0
12 18:55 SW 6 10.00 Fair CLR 83.3 61.7 86 81.7 48% 84 30.11 0.0
12 18:35 SE 6 10.00 Fair CLR 83.5 58.8 43% 83 30.1 0.0
12 18:15 SE 8 10.00 Fair CLR 84 57.2 40% 83 30.1 0.0
12 17:55 S 7 10.00 Partly Cloudy SCT055 84.7 58.8 42% 84 30.1 0.0
12 17:35 S 7 10.00 Partly Cloudy SCT055 85.3 59.4 42% 85 30.1 0.0
12 17:15 SE 6 10.00 Fair CLR 85.5 58.6 40% 85 30.1 0.0
12 16:55 S 3 10.00 Partly Cloudy SCT060 85.5 59.9 42% 85 30.1 0.0
12 16:35 SE 6 10.00 Fair CLR 85.8 60.1 42% 86 30.11 0.0
12 16:15 SE 7 10.00 Fair CLR 85.5 60.4 43% 85 30.11 0.0
12 15:55 Calm 10.00 Partly Cloudy SCT060 85.1 59 41% 85 30.11 0.0
12 15:35 SE 8 10.00 Partly Cloudy SCT050 85.3 61 44% 85 30.11 0.0
12 15:15 E 8 10.00 Partly Cloudy SCT050 84.7 61.2 45% 85 30.11 0.0
12 14:55 E 9 10.00 Partly Cloudy SCT050 82.8 61.5 49% 83 30.12 0.0
12 14:35 E 6 10.00 Partly Cloudy SCT050 83.1 62.2 49% 84 30.12 0.0
12 14:15 SE 6 10.00 Partly Cloudy SCT048 84.7 63.5 49% 86 30.13 0.0
12 13:55 E 8 10.00 Partly Cloudy SCT050 84.7 63.5 49% 86 30.13 0.0
12 13:35 SE 7 10.00 Partly Cloudy SCT050 SCT060 82.8 62.2 50% 84 30.13 0.0
12 13:15 E 5 10.00 Partly Cloudy SCT050 SCT065 82.8 61.7 49% 83 30.14 0.0
12 12:55 E 5 10.00 Partly Cloudy SCT048 84.2 61.2 84.4 66.4 46% 85 30.15 0.0
12 12:35 NE 5 10.00 Fair CLR 84.2 62.6 48% 85 30.15 0.0
12 12:15 SE 7 10.00 Fair CLR 83.3 64.4 53% 85 30.15 0.0
12 11:55 SE 3 10.00 Fair CLR 82.6 65.1 56% 84 30.15 0.0
12 11:35 SE 7 10.00 Fair CLR 82.6 63.1 52% 84 30.15 0.0
12 11:15 E 5 10.00 Fair CLR 81.7 64.8 57% 83 30.16 0.0
12 10:55 E 5 10.00 Fair CLR 81.3 64.2 56% 83 30.16 0.0
12 10:35 Calm 10.00 Fair CLR 79.9 65.5 62% 82 30.16 0.0
12 10:15 Calm 10.00 Fair CLR 79.3 65.1 62% 81 30.16 0.0
12 09:55 Calm 10.00 Fair CLR 78.8 64.2 61% 81 30.16 0.0
12 09:30 Calm 10.00 Fair CLR 77.5 64.2 64% 79 30.16 0.0
12 09:15 Calm 10.00 Fair CLR 77 64.9 66% 79 30.16 0.0
12 08:55 Calm 10.00 Fair CLR 75.7 64.9 69% 77 30.16 0.0
12 08:35 Calm 10.00 Fair CLR 74.3 65.7 75% 30.17 0.0
12 08:15 Calm 10.00 Fair CLR 73.4 66.2 78% 30.16 0.0
12 07:55 SW 3 10.00 Fair CLR 72.1 66.9 84% 30.15 0.0
12 07:35 Calm 10.00 Fair CLR 69.8 67.6 93% 30.15 0.0
12 07:15 Calm 7.00 Fair CLR 67.5 67.3 99% 30.14 0.0
12 06:55 Calm 7.00 Fair CLR 66.2 66.2 66.2 60.3 100% 30.13 0.0
12 06:35 Calm 4.00 Fair CLR 63.5 63.5 100% 30.13 0.0
12 06:15 Calm 5.00 Fair CLR 62.1 62.1 100% 30.13 0.0
12 05:55 NW 3 4.00 Fair CLR 61.3 61.3 100% 30.12 0.0
12 05:35 Calm 3.00 Fair CLR 61.2 61.2 100% 30.12 0.0
12 05:15 Calm 5.00 Fair CLR 61 61 100% 30.12 0.0
12 04:55 Calm 1.75 Sky Obscured VV007 61 61 100% 30.12 0.0
Date Time (cdt) Wind (mph) Vis. (mi.) Weather Sky Cond. Air Dwpt Max. Min. Relative Humidity Wind Chill (°F) Heat Index (°F) altimeter (in) sea level (mb) 1 hr 3 hr 6 hr
6 hour
Temperature (ºF) Pressure Precipitation (in)